Погода в Новокуровке

Россия / Самарская область     52°39′45″N   49°17′02″E
темп.,
°C
ветер,
м/с
пор.,
м/с
влажн.,
%
обл.,
%
осадки,
мм/ч
давл.,
гПа
погр.,
м
18 апреля, вс
вс1801:00+12всв5126716 0.0 1017272
04:00+10всв4974100 0.0 1017210
07:00+9всв4875100 0.3 1017272
10:00+12всв576276 0.6 1017543
13:00+16всв665088 0.2 10171123
16:00+17всв774465 0.2 10171631
19:00+15св6115098 0.0 1017533
22:00+13всв71346100 0.0 1018573
19 апреля, пн
пн1901:00+10всв81359100 0.0 1019554
04:00+8всв81471100 0.0 1019512
07:00+6всв81474100 0.0 1020497
10:00+8всв796999 0.0 1021699
13:00+8в61069100 0.1 1021751
16:00+10вюв61066100 0.1 10211257
19:00+8в71170100 0.3 1023888
22:00+5в81381100 0.4 1025762
20 апреля, вт
вт2001:00+4в71384100 0.0 1026745
04:00+5вюв71360100 0.0 1026806
07:00+4в81355100 0.0 1028741
10:00+6вюв912445 0.0 1029952
13:00+9вюв10123896 0.0 10281279
16:00+10вюв81035100 0.0 10281496
19:00+8вюв81240100 0.0 10271117
22:00+6вюв91642100 0.0 1027846
21 апреля, ср
ср2101:00+5юв91746100 0.0 1026778
04:00+3юв81748100 0.0 1027693
07:00+3юв91850100 0.0 1026643
10:00+5юв91746100 0.0 1026775
13:00+6ююв91547100 0.3 1026884
16:00+6ююв81560100 1.3 1026951
19:00+5ююв61374100 0.3 1027931
22:00+5ююв71583100 1.0 1028868
22 апреля, чт
чт2201:00+5ююв61483100 0.6 1028787
04:00+5ююв71385100 1.1 1028646
07:00+5ююв61192100 3.0 1029600
10:00+5ююв5990100 3.4 1029576
13:00+6ююв61090100 0.0 1030536
16:00+5ююв6988100 0.1 1030468
19:00+4ююв5991100 0.4 1031360
22:00+4ююв4893100 0.5 1031336